Location: *
(40.7873°S, 98.7174°E)
Time: 10:45:42
(UTC+00:00)

Cosmos 192 - Pass Details

Date: 24 May 2022
Orbit: 701 x 712 km, 74.0° (Epoch: 04 July)

Event Time Altitude Azimuth Distance (km) Brightness Sun altitude
Rises 11:13:37 0° 344° (NNW) 3,090 8.1 -11.9°
Reaches altitude 10° 11:15:55 10° 345° (NNW) 2,181 7.3 -12.3°
Maximum altitude 11:20:52 85° 73° (ENE) 726 4.3 -13.2°
Drops below altitude 10° 11:25:53 10° 159° (SSE) 2,218 6.6 -14.1°
Enters shadow 11:26:55 - 160° (SSE) 2,623 6.9 -14.3°
